Tracking 17265 objects as of 4-September-2015
HD Live streaming from Space Station

Track Soyuz TMA-18M
and Space Station

EUTELSAT 2-F4

Track EUTELSAT 2-F4 now!
EUTELSAT 2-F4 is classified as:


NORAD ID: 22028
Int'l Code: 1992-041B
Perigee: 36,083.6 km
Apogee: 36,178.2 km
Inclination: 12.1 °
Period: 1,453.4 minutes
Semi major axis: 42501 km
RCS: 3.1622 m2 (large)
Launch date: July 9, 1992
Source: European Telecommunications Satellite Organization (EUTE)
Your satellite tracking list
Your tracking list is empty





NASA's NSSDC Master Catalog

Two Line Element Set (TLE):
1 22028U 92041B   15241.76522991 -.00000313 +00000-0 +00000-0 0  9992
2 22028 012.0790 038.4958 0011133 153.0184 204.1673 00.99081002007697

Source of the keplerian elements: AFSPC

N2YO: 312